Location: Angwan Shehu
(11.2514°N, 7.4613°E)
Time: 04:42:18
(UTC+00:00)

Vanguard 3 - Pass Details

Date: 06 August 2021
Orbit: 510 x 3260 km, 33.3° (Epoch: 16 September)

Event Time Altitude Azimuth Distance (km) Brightness Sun altitude
Rises 20:41:38 0° 306° (NW) 6,566 12.7 -38.8°
Reaches altitude 10° 20:45:52 10° 311° (NW) 5,794 12.1 -39.6°
Maximum altitude 21:04:47 57° 27° (NNE) 3,616 10.2 -43.5°
Enters shadow 21:08:41 52° 60° (ENE) 3,695 10.1 -44.2°
